Regional Weather Roundup
Issued by NWS Sioux Falls, SD

Home | Current Version | Previous Version | Text Only | Print | Product List | Glossary On
Versions: 1 2 3 4 5 6 7 8 9 10 11 12 13 14 15 16 17 18 19 20 21 22 23 24 25 26 27 28 29 30 31 32 33 34 35 36 37 38 39 40 41 42 43 44 45 46 47 48 49 50
000
ASUS43 KFSD 300110
RWRFSD

WEATHER ROUNDUP FOR SE SOUTH DAKOTA/SW MINNESOTA/NW IOWA
NATIONAL WEATHER SERVICE SIOUX FALLS SD
800 PM CDT SAT AUG 29 2015

NOTE: "FAIR" INDICATES FEW OR NO CLOUDS BELOW 12,000 FEET WITH NO
SIGNIFICANT WEATHER AND OR OBSTRUCTIONS TO VISIBILITY.


SDZ038>040-050-052>070-300200-
SOUTHEAST SOUTH DAKOTA

CITY           SKY/WX    TMP DP  RH WIND       PRES   REMARKS
BROOKINGS      CLEAR     70  63  78 S10       30.00S
CHAMBERLAIN    CLEAR     75  70  82 SE8       29.92S
HURON          CLEAR     76  68  76 S13       29.92S
MADISON        FAIR      68  68 100 S7        29.99S
MITCHELL       CLEAR     74  68  81 SE10      29.95S
SIOUX FALLS    MOCLDY    70  64  81 S9        29.99S
WINNER         FAIR      78  68  71 SE9       29.93F
YANKTON        CLEAR     72  66  83 SE8       29.97S
$$

MNZ071-072-080-081-089-090-097-098-300200-
SOUTHWEST MINNESOTA

CITY           SKY/WX    TMP DP  RH WIND       PRES   REMARKS
FAIRMONT       MOCLDY    64  57  77 S6        30.03S
JACKSON        MOCLDY    68  64  88 S6        30.03F
LUVERNE        CLEAR     68  63  83 S6        30.01F
MARSHALL       MOCLDY    72  61  68 S8        30.00S
MONTEVIDEO     PTCLDY    72  64  78 S8        29.97F
PIPESTONE      CLEAR     68  64  88 S6        30.01S
REDWOOD FALLS  MOCLDY    68  65  90 SE8       29.99S
TRACY          MOCLDY    71  67  84 S3        30.00S
WINDOM         MOCLDY    70  64  83 S6        30.02S
WORTHINGTON    PTCLDY    66  61  82 S8        30.02F
$$

IAZ001>003-012>014-020>022-031-032-NEZ013-014-SDZ071-300200-
NORTHWEST IOWA

CITY           SKY/WX    TMP DP  RH WIND       PRES   REMARKS
CHEROKEE       PTCLDY    66  65  96 SE3       30.04S
DENISON        CLOUDY    66  63  88 CALM      30.03S
ESTHERVILLE    MOCLDY    63  62  97 S6        30.04S
LE MARS        PTCLDY    66  64  94 S6        30.03S
ORANGE CITY    PTCLDY    66  64  94 SE6       30.03S
SHELDON        PTCLDY    66  64  94 SE7       30.02S
SIOUX CITY     NOT AVBL
SPENCER        PTCLDY    67  63  87 S6        30.04S
STORM LAKE     MOCLDY    63  63 100 SE5       30.06R
$$

ABBREVIATIONS USED IN REMARKS
   TC - TEMPERATURE IN CELSIUS
  WCI - WIND CHILL INDEX
   HX - HEAT INDEX
  VSB - VISIBILITY




USA.gov is the U.S. government's official web portal to all federal, state and local government web resources and services.